This demonstration page uses our WeatherBlox Daily Observations layout. Learn more.

Left ArrowRight Arrow

39.01783, -85.05884

Hourly Observations for June 1, 2017

Temp ( °F °C ) Dew Point ( °F °C ) Humidity (%) Winds ( mph kmh ) Pressure ( in mb ) Visibility ( mi km ) Precip ( " mm )
12:52 am 00:52 Mostly Clear 66 18.9 48 8.9 52 52 NW 5 7 30.02 1017 10 16 N/A
1:52 am 01:52 Mostly Clear 59 15 50 10 72 72 N N/A 30.04 1017 10 16 N/A
2:52 am 02:52 Mostly Clear 56 13.3 50 10 81 81 N N/A 30.04 1017 10 16 N/A
3:52 am 03:52 Mostly Clear 55 12.8 50 10 83 83 N N/A 30.04 1017 10 16 N/A
4:52 am 04:52 Clear 55 12.8 48 8.9 77 77 N N/A 30.05 1018 10 16 N/A
5:52 am 05:52 Partly Cloudy 55 12.8 46 7.8 72 72 VRB 3 6 30.06 1018 10 16 N/A
6:52 am 06:52 Partly Cloudy 54 12.2 48 8.9 80 80 NW 3 6 30.07 1018 10 16 N/A
7:52 am 07:52 Partly Cloudy 59 15 56 13.3 90 90 N N/A 30.09 1019 10 16 N/A
8:52 am 08:52 Mostly Cloudy 66 18.9 52 11.1 61 61 N N/A 30.09 1019 10 16 N/A
9:52 am 09:52 Mostly Sunny 70 21.1 46 7.8 42 42 SW 5 7 30.10 1019 10 16 N/A
10:52 am 10:52 Mostly Sunny 73 22.8 43 6.1 34 34 NW 9 15 30.10 1019 10 16 N/A
11:52 am 11:52 Mostly Sunny 74 23.3 41 5 31 31 W 8 13 30.10 1019 10 16 N/A
12:52 pm 12:52 Mostly Sunny 75 23.9 44 6.7 33 33 WNW 8 13 30.09 1019 10 16 N/A
1:52 pm 13:52 Partly Cloudy 76 24.4 44 6.7 32 32 NW 8 13 30.09 1019 10 16 N/A
2:52 pm 14:52 Partly Cloudy 78 25.6 45 7.2 31 31 undefined N/A 30.07 1018 10 16 N/A
3:52 pm 15:52 Partly Cloudy 79 26.1 45 7.2 30 30 VRB 3 6 30.06 1018 10 16 N/A
4:52 pm 16:52 Mostly Cloudy 78 25.6 43 6.1 29 29 N N/A 30.04 1017 10 16 N/A
5:52 pm 17:52 Mostly Cloudy 78 25.6 44 6.7 30 30 W 8 13 30.03 1017 10 16 N/A
6:52 pm 18:52 Partly Cloudy 77 25 44 6.7 31 31 N N/A 30.02 1017 10 16 N/A
7:52 pm 19:52 Mostly Sunny 75 23.9 46 7.8 36 36 W 7 11 30.01 1016 10 16 N/A
8:52 pm 20:52 Mostly Sunny 71 21.7 44 6.7 38 38 WSW 3 6 30.02 1017 10 16 N/A
9:52 pm 21:52 Clear 66 18.9 45 7.2 47 47 W 3 6 30.03 1017 10 16 N/A
10:52 pm 22:52 Clear 62 16.7 46 7.8 56 56 N N/A 30.04 1017 10 16 N/A
11:52 pm 23:52 Clear 58 14.4 46 7.8 65 65 N N/A 30.03 1017 10 16 N/A

Powered by AerisWeather